Regional Weather Roundup
Issued by NWS

Home | Current Version | Previous Version | Text Only | Print | Product List | Glossary On
Versions: 1 2 3 4 5 6 7 8 9 10 11 12 13 14 15 16 17 18 19 20 21 22 23 24 25 26 27 28 29 30 31 32 33 34 35 36 37 38 39 40 41 42 43 44 45 46 47 48 49 50
000
ASUS44 KOUN 281100
RWROK

WEATHER ROUNDUP FOR OKLAHOMA
NATIONAL WEATHER SERVICE NORMAN OK
500 AM CST SUN DEC 28 2014

NOTE: "FAIR" INDICATES FEW OR NO CLOUDS BELOW 12,000 FEET WITH NO
      SIGNIFICANT WEATHER AND/OR OBSTRUCTIONS TO VISIBILITY.

OKZ001>007-009>012-014-015-017-281200-
NORTHWEST OKLAHOMA AND THE PANHANDLE

CITY           SKY/WX    TMP DP  RH WIND       PRES   REMARKS
GAGE           CLEAR     13  10  88 W3        30.19F
$$

OKZ016-021>023-033>039-044-045-281200-
SOUTHWEST OKLAHOMA

CITY           SKY/WX    TMP DP  RH WIND       PRES   REMARKS
LAWTON/REGL    MOCLDY    21  17  84 CALM      30.25F
FREDERICK      MOCLDY    29  21  72 NW8       30.22F WCI  21
CLINTON        CLEAR     22  14  71 SW7       30.23F WCI  13
HOBART         CLEAR     18  15  88 W6        30.24F WCI  10
$$

OKZ018>020-024>031-281200-
CENTRAL OKLAHOMA

CITY           SKY/WX    TMP DP  RH WIND       PRES   REMARKS
OKLAHOMA CITY  CLOUDY    26  18  71 W5        30.24F WCI  20
OKC/WILEY POST CLOUDY    24  19  81 CALM      30.25F
STILLWATER     CLOUDY    21  18  88 SW3       30.25F
GUTHRIE        CLOUDY    21  18  88 S5        30.26S WCI  15
$$

OKZ008-013-054>072-281200-
NORTHEAST OKLAHOMA

CITY           SKY/WX    TMP DP  RH WIND       PRES   REMARKS
TULSA          CLOUDY    26  19  74 W5        30.26S WCI  20
TULSA/JONES    CLOUDY    24  21  88 CALM      30.27S
PONCA CITY     MOCLDY    19  15  84 CALM      30.25F
BARTLESVILLE   CLOUDY    21  18  88 CALM      30.27F
MUSKOGEE       CLOUDY    28  23  81 N7        30.26F WCI  21
$$

OKZ032-040>043-046>053-073>077-281200-
SOUTH CENTRAL/SOUTHEAST OKLAHOMA

CITY           SKY/WX    TMP DP  RH WIND       PRES   REMARKS
MCALESTER      CLOUDY    31  24  75 N6        30.25R WCI  25
$$



USA.gov is the U.S. government's official web portal to all federal, state and local government web resources and services.